Wind_Speed
4 5 3 4 5 5 3 3 6 7 4 5 3 2 6 6 5 8 7 6 4 4 9 10 5 11 12 14 19 20 3 13 23 27 30 27 23 22 19 19 16 22 23 19
5 2 8 8 5 5 3 6 9 7 5 5 1 3 6 8 5 6 6 4 4 7 5 1 4 7 12 13 17 20 17 8 19 24 28 23 19 17 17 23 25 23 21 22
5 7 9 5 5 2 2 3 5 8 3 5 5 5 4 4 6 14 11 9 9 8 5 6 6 5 11 12 11 22 16 21 19 23 25 17 17 12 15 11 16 17 19 18
5 5 8 6 7 6 3 7 7 6 2 4 4 4 4 3 5 5 7 1 11 12 10 12 7 7 9 13 14 19 16 12 11 12 13 10 9 10 7 11 11 14 17 16
12 5 7 6 13 3 10 3 3 2 3 3 1 3 5 2 3 1 7 8 8 12 12 14 11 7 11 13 10 9 7 7 8 5 8 5 4 4 7 11 14 18 22 23
9 4 7 10 9 6 6 1 4 3 4 1 4 5 5 5 5 2 2 11 15 13 15 13 12 10 12 10 7 4 4 6 8 6 4 2 7 9 12 16 18 19 18 19
4 4 4 4 3 3 5 6 3 3 2 6 1 1 8 4 4 7 10 13 14 12 13 14 14 13 10 7 5 4 3 4 5 6 5 9 12 15 13 14 14 18 23 28
1 6 2 1 3 6 3 7 5 6 4 5 1 5 6 3 3 8 18 15 13 13 13 13 12 10 8 6 6 8 8 5 5 7 9 13 11 10 11 15 18 22 20 22
3 4 3 3 0 3 2 3 1 6 4 2 4 5 7 7 8 9 15 17 14 17 17 16 13 10 8 8 9 7 6 7 6 7 9 9 9 12 15 14 12 19 24 27
4 1 2 3 3 5 4 4 3 3 3 4 3 4 6 5 9 8 10 18 17 16 18 16 12 10 10 12 11 11 11 10 10 8 6 8 12 15 8 14 18 20 23 29
3 3 5 1 1 4 2 2 5 4 4 4 2 6 6 9 9 11 14 22 22 20 18 17 14 14 15 14 15 13 11 11 9 7 8 13 15 7 13 17 18 21 29 28
3 4 4 8 2 5 3 4 4 4 3 2 3 7 3 7 8 19 21 24 20 18 16 16 16 15 16 15 15 13 10 9 7 9 14 11 6 12 16 18 18 24 25 22
3 1 3 9 6 1 3 4 3 5 3 6 4 6 2 4 2 17 23 23 22 19 17 17 17 16 17 19 17 16 12 9 9 13 9 6 8 14 18 17 20 22 18 19
4 4 8 7 7 3 4 6 6 5 3 4 6 6 5 7 6 13 18 22 24 21 17 17 18 15 16 16 17 14 11 10 11 11 5 6 11 15 16 17 21 17 16 17
2 5 5 5 7 5 5 6 7 8 6 5 5 7 7 11 8 19 20 23 25 24 22 22 23 21 19 19 15 12 12 12 10 10 8 9 13 13 14 18 17 17 13 16
4 3 3 4 4 4 6 6 10 10 9 6 5 9 5 9 13 14 23 24 25 24 24 21 21 23 19 16 13 11 11 13 12 12 10 11 10 14 14 19 16 13 13 14
3 3 4 5 4 7 3 5 5 2 2 4 3 2 2 4 10 18 18 26 25 21 20 19 20 18 14 12 11 11 11 13 14 13 12 12 13 15 14 17 15 15 15 16
1 2 1 4 5 3 1 5 5 2 3 3 4 3 3 6 9 11 13 20 22 19 16 13 14 13 11 10 12 12 12 14 16 15 15 14 14 16 15 16 15 16 15 16
2 3 1 2 3 5 1 5 5 6 5 10 3 4 3 9 4 3 4 7 12 12 9 8 7 9 11 12 11 12 13 17 18 16 16 15 14 16 16 17 16 16 16 15
5 2 1 1 2 3 5 1 2 4 7 16 5 7 9 7 3 4 7 10 9 9 9 8 7 9 9 9 11 16 16 17 21 17 16 15 15 18 17 17 18 16 17 16
3 3 1 2 1 6 4 6 6 4 5 5 5 8 10 5 8 5 12 9 10 10 11 8 9 9 10 12 17 21 21 21 16 17 18 19 20 20 19 18 20 17 17 15
1 1 2 1 2 3 5 4 0 3 2 3 4 5 7 7 5 5 7 11 13 15 13 15 14 15 17 17 21 24 25 22 19 18 21 21 20 21 20 20 20 17 17 18
1 4 3 5 4 3 8 3 2 2 4 3 4 3 2 3 4 6 8 9 16 20 19 19 20 22 23 22 25 29 28 26 25 23 24 22 22 23 22 22 21 19 18 18
3 3 3 0 2 7 10 6 5 10 5 5 6 6 6 9 12 14 15 15 16 19 21 24 25 27 29 34 29 33 32 36 32 30 29 26 24 24 24 23 23 22 20 18
2 1 2 3 2 3 10 15 16 17 9 7 5 6 8 12 13 18 23 17 21 14 21 15 22 23 22 23 23 18 26 24 29 33 36 34 28 26 25 24 24 24 22 21
3 2 1 2 9 10 7 14 8 8 8 9 11 15 13 12 14 13 13 12 6 10 9 11 13 16 14 13 12 12 17 20 21 25 26 30 38 32 28 27 26 25 25 22
Wind_Direction
48 70 161 212 200 217 215 207 256 260 316 77 11 349 314 344 333 38 89 39 353 279 288 290 241 236 243 214 199 200 198 237 235 228 224 239 252 256 258 272 270 285 290 291
29 183 221 215 229 232 210 297 292 289 61 84 234 307 304 325 326 343 342 347 289 276 277 207 201 221 191 196 197 196 215 261 228 223 233 247 250 263 273 280 267 288 272 291
173 223 219 199 272 337 237 219 261 236 6 37 112 328 325 330 302 287 288 257 245 234 229 181 189 192 202 209 221 208 242 266 239 237 245 242 259 279 273 287 291 289 305 296
223 252 215 223 262 171 258 216 241 260 172 253 168 259 278 241 305 309 9 100 220 201 187 196 181 157 197 202 201 214 238 261 248 256 264 249 264 293 271 297 298 304 313 313
241 206 209 217 228 187 243 30 258 284 190 118 187 108 255 276 149 115 67 74 170 184 182 180 184 179 192 204 213 212 244 244 258 270 242 219 293 278 276 288 294 294 295 293
237 224 168 223 253 203 226 132 64 72 90 5 234 148 265 194 164 169 114 108 139 163 165 171 178 185 186 181 186 201 218 258 270 248 179 228 279 283 289 286 284 292 298 305
325 259 256 176 233 39 68 53 342 328 338 227 286 30 235 205 155 190 170 134 149 152 151 155 158 161 162 174 201 216 145 137 141 159 256 283 292 300 297 292 301 312 311 314
175 333 352 267 190 202 174 159 162 227 209 240 66 240 255 178 118 150 153 141 149 152 140 139 131 128 129 139 133 126 118 148 208 246 276 285 284 282 299 310 311 316 322 328
144 270 308 78 299 90 238 242 187 100 358 38 237 292 313 87 93 121 130 137 148 147 139 133 130 126 129 139 138 147 194 211 239 274 276 269 284 305 310 316 332 339 339 329
193 229 8 328 40 66 151 151 73 15 171 253 291 280 237 179 170 160 155 152 160 156 149 147 143 145 160 166 175 195 202 225 242 247 266 288 301 317 335 339 340 333 327 321
134 129 270 26 116 205 7 325 56 128 144 194 276 259 213 196 172 170 176 174 174 172 166 161 157 164 174 182 194 205 225 232 224 244 285 308 319 337 348 334 324 330 329 327
32 132 224 229 183 157 178 204 160 134 256 231 178 270 265 182 182 177 181 183 183 178 176 177 174 180 188 196 210 224 219 220 251 301 312 312 314 342 327 320 324 329 328 333
179 284 340 334 355 41 202 182 160 116 132 200 165 266 348 159 161 184 178 188 188 187 189 191 193 204 213 213 219 222 228 250 295 308 310 310 319 321 322 322 324 324 329 335
133 176 190 223 217 175 238 214 189 157 149 187 220 270 267 202 192 181 188 196 194 194 195 202 208 217 213 215 214 222 245 273 290 321 289 308 317 316 324 325 325 328 327 335
123 232 198 253 252 238 237 242 224 204 217 184 248 218 242 205 185 190 193 203 203 207 210 220 223 216 209 208 218 238 267 281 294 304 277 306 316 320 329 331 329 329 329 329
8 293 343 270 191 291 266 257 248 242 229 247 277 266 214 153 170 166 194 195 201 209 210 208 205 207 211 220 244 265 280 293 291 305 276 304 307 326 324 334 330 336 339 344
23 1 8 272 326 297 223 348 18 345 348 195 182 257 96 120 169 186 190 195 204 203 201 203 205 210 222 244 267 285 300 302 296 305 281 291 301 312 311 328 322 326 326 333
102 112 116 285 323 252 294 3 48 323 333 14 74 15 134 188 184 200 206 208 211 202 197 202 210 223 245 264 282 294 300 298 291 286 283 282 298 303 299 317 321 323 318 327
161 118 57 21 300 299 281 5 29 34 326 330 281 95 83 105 114 23 243 230 185 175 190 218 224 261 279 293 299 292 290 286 283 285 285 284 289 300 292 305 314 319 312 324
100 73 146 112 352 337 260 32 76 80 4 340 103 117 132 57 37 275 181 175 189 219 237 235 278 282 278 282 279 279 286 281 279 289 289 290 289 291 293 300 308 307 308 317
20 358 338 113 177 259 267 151 163 90 223 309 95 135 153 183 225 242 191 214 252 260 242 248 284 297 296 281 272 277 284 282 299 287 283 284 287 286 294 291 307 303 299 309
188 116 276 32 257 349 113 109 93 230 76 107 87 111 132 142 156 177 223 241 245 238 248 268 272 290 294 281 270 276 280 298 291 284 280 285 291 288 291 288 302 300 291 298
326 187 195 167 241 276 290 319 316 103 74 83 87 132 178 182 209 237 258 270 260 255 270 276 270 280 287 283 278 274 286 296 290 281 281 289 289 286 287 282 293 291 286 292
265 202 235 258 306 317 325 282 28 53 46 56 16 350 322 308 312 307 290 285 286 278 277 272 276 287 294 289 291 287 299 289 287 279 279 284 283 289 287 280 285 288 284 284
207 354 288 269 338 83 57 69 58 47 8 6 17 23 6 347 329 317 301 292 299 299 313 300 301 321 317 314 312 304 308 308 296 293 284 278 281 284 286 281 281 284 282 275
160 204 104 316 339 74 59 70 53 43 27 23 32 28 25 19 21 359 8 352 329 308 320 315 324 320 335 343 348 337 329 333 329 327 310 285 280 279 284 281 281 282 281 277
Height
1520 1528 1536 1527 1525 1524 1525 1530 1531 1519 1510 1519 1522 1520 1516 1516 1515 1516 1517 1517 1517 1516 1516 1514 1513 1513 1513 1515 1519 1521 1524 1527 1529 1531 1533 1534 1536 1537 1537 1538 1536 1535 1533 1530
1527 1533 1522 1518 1518 1517 1516 1524 1522 1513 1510 1518 1526 1525 1519 1516 1516 1516 1516 1517 1518 1516 1514 1513 1512 1511 1514 1517 1521 1523 1525 1527 1528 1530 1532 1532 1534 1535 1535 1533 1531 1530 1526 1524
1528 1522 1515 1518 1517 1518 1517 1523 1521 1523 1514 1520 1524 1530 1524 1518 1517 1515 1515 1516 1516 1515 1515 1515 1515 1513 1515 1518 1522 1524 1527 1528 1528 1529 1530 1531 1533 1532 1531 1530 1527 1525 1523 1521
1521 1512 1515 1517 1517 1511 1522 1507 1512 1517 1524 1538 1522 1550 1528 1522 1522 1518 1515 1512 1512 1514 1515 1517 1517 1516 1518 1520 1522 1526 1528 1527 1527 1528 1529 1530 1531 1530 1528 1527 1526 1524 1523 1521
1518 1512 1515 1519 1511 1505 1515 1506 1510 1513 1521 1526 1529 1542 1528 1520 1519 1519 1517 1512 1513 1515 1515 1517 1518 1518 1519 1522 1524 1526 1526 1526 1527 1528 1529 1529 1529 1528 1527 1526 1525 1523 1521 1518
1506 1504 1507 1504 1501 1501 1500 1504 1512 1522 1530 1548 1530 1536 1533 1522 1515 1516 1515 1512 1514 1517 1517 1518 1518 1518 1520 1522 1525 1526 1526 1527 1527 1527 1528 1528 1528 1526 1525 1524 1522 1521 1518 1515
1508 1505 1499 1498 1504 1501 1507 1521 1547 1548 1547 1550 1528 1536 1524 1507 1509 1510 1512 1513 1516 1517 1517 1517 1518 1519 1521 1523 1525 1526 1526 1526 1526 1527 1527 1526 1526 1525 1523 1522 1520 1517 1515 1511
1523 1528 1502 1497 1500 1507 1506 1516 1542 1552 1559 1543 1526 1536 1518 1504 1505 1505 1509 1511 1515 1516 1516 1519 1520 1521 1521 1523 1524 1526 1526 1526 1527 1526 1526 1525 1524 1523 1522 1520 1518 1514 1511 1506
1523 1519 1499 1497 1497 1503 1510 1522 1518 1537 1540 1549 1532 1518 1505 1505 1509 1511 1509 1510 1515 1517 1517 1519 1520 1521 1522 1524 1526 1526 1526 1525 1525 1525 1525 1524 1523 1522 1521 1518 1515 1511 1506 1501
1511 1523 1504 1501 1499 1503 1505 1511 1529 1538 1548 1553 1533 1530 1523 1509 1512 1511 1510 1510 1514 1517 1517 1519 1521 1522 1523 1524 1525 1525 1524 1524 1524 1523 1523 1523 1521 1520 1517 1514 1510 1506 1501 1496
1508 1515 1513 1503 1509 1513 1514 1518 1526 1531 1538 1542 1544 1530 1501 1500 1502 1504 1506 1508 1511 1514 1516 1517 1519 1521 1522 1523 1523 1523 1524 1523 1522 1522 1522 1520 1518 1517 1514 1510 1506 1502 1497 1492
1511 1519 1525 1513 1502 1503 1506 1510 1515 1531 1533 1537 1539 1530 1492 1494 1497 1499 1503 1506 1509 1512 1514 1517 1518 1519 1520 1520 1521 1521 1522 1522 1522 1520 1518 1516 1516 1514 1511 1507 1503 1499 1494 1489
1507 1520 1533 1522 1512 1505 1506 1506 1509 1513 1526 1533 1537 1524 1494 1495 1496 1499 1501 1504 1507 1510 1512 1515 1516 1517 1518 1518 1518 1519 1520 1520 1520 1518 1515 1514 1513 1511 1508 1505 1501 1497 1492 1487
1505 1517 1519 1528 1516 1507 1509 1504 1503 1509 1527 1520 1520 1507 1498 1496 1496 1498 1501 1504 1506 1508 1510 1512 1513 1513 1514 1515 1516 1518 1518 1518 1517 1514 1513 1512 1510 1508 1506 1503 1499 1494 1490 1486
1509 1516 1511 1505 1502 1500 1500 1498 1497 1507 1504 1509 1500 1503 1492 1489 1493 1495 1498 1502 1506 1507 1508 1509 1510 1511 1512 1513 1515 1516 1517 1516 1514 1512 1510 1509 1507 1506 1503 1500 1496 1492 1489 1484
1512 1515 1511 1507 1500 1502 1500 1492 1489 1490 1489 1490 1491 1493 1484 1488 1493 1496 1497 1501 1503 1504 1506 1507 1508 1510 1511 1513 1514 1514 1514 1513 1512 1509 1507 1506 1505 1503 1500 1498 1494 1490 1487 1483
1514 1517 1520 1517 1506 1504 1505 1499 1492 1487 1486 1486 1496 1489 1488 1490 1491 1494 1496 1499 1500 1501 1503 1506 1509 1511 1513 1513 1513 1511 1511 1510 1509 1507 1504 1503 1501 1499 1498 1496 1492 1488 1485 1481
1513 1518 1523 1522 1512 1516 1506 1496 1493 1492 1487 1487 1487 1489 1486 1489 1493 1497 1498 1498 1499 1501 1505 1508 1511 1512 1512 1511 1511 1509 1507 1507 1506 1503 1502 1500 1497 1496 1494 1492 1489 1485 1482 1479
1513 1518 1522 1529 1527 1510 1501 1500 1501 1502 1499 1490 1489 1489 1496 1495 1497 1499 1498 1499 1501 1505 1507 1508 1509 1509 1509 1509 1508 1507 1504 1503 1502 1500 1497 1495 1493 1491 1490 1488 1486 1482 1479 1476
1514 1515 1518 1521 1525 1524 1507 1504 1503 1497 1512 1494 1491 1494 1496 1499 1507 1506 1500 1500 1503 1504 1506 1506 1507 1507 1507 1506 1506 1504 1501 1499 1497 1496 1493 1491 1489 1487 1485 1484 1482 1479 1475 1472
1523 1524 1524 1527 1525 1516 1500 1501 1502 1512 1520 1499 1496 1497 1498 1502 1502 1500 1500 1502 1503 1503 1505 1505 1505 1504 1503 1502 1502 1499 1497 1494 1492 1491 1489 1486 1485 1482 1481 1479 1477 1475 1472 1469
1523 1528 1529 1525 1526 1516 1502 1504 1506 1503 1499 1499 1499 1499 1500 1501 1501 1500 1501 1501 1501 1502 1502 1502 1502 1500 1498 1497 1495 1493 1491 1488 1487 1486 1484 1482 1480 1478 1476 1473 1472 1470 1468 1465
1522 1520 1523 1522 1518 1506 1505 1503 1501 1500 1499 1500 1501 1500 1500 1500 1500 1500 1499 1499 1499 1499 1499 1498 1497 1496 1494 1493 1490 1487 1485 1484 1482 1481 1479 1476 1474 1472 1470 1468 1467 1465 1463 1461
1515 1514 1515 1513 1506 1505 1504 1504 1504 1504 1504 1501 1500 1500 1500 1499 1499 1498 1497 1497 1497 1496 1495 1496 1496 1493 1492 1490 1486 1481 1482 1478 1477 1474 1472 1470 1468 1466 1465 1463 1461 1459 1458 1456
1515 1514 1514 1511 1505 1505 1507 1505 1506 1506 1506 1503 1502 1502 1502 1501 1500 1499 1497 1496 1495 1495 1497 1496 1491 1488 1485 1482 1480 1479 1475 1471 1470 1468 1466 1464 1461 1459 1458 1456 1454 1453 1452 1450
1513 1513 1516 1515 1511 1511 1511 1509 1507 1505 1507 1505 1505 1504 1501 1499 1498 1497 1494 1492 1491 1491 1492 1489 1485 1481 1481 1476 1472 1472 1469 1466 1463 1460 1456 1454 1455 1453 1450 1449 1447 1446 1444 1443